Date,TemperatureHighF,TemperatureAvgF,TemperatureLowF,DewpointHighF,DewpointAvgF,DewpointLowF,HumidityHigh,HumidityAvg,HumidityLow,PressureMaxIn,PressureMinIn,WindSpeedMaxMPH,WindSpeedAvgMPH,GustSpeedMaxMPH,PrecipitationSumIn
2013-1-1,23,18,10,16,10,4,84,73,57,29.35,29.20,8,0,8,0.00
2013-1-2,26,16,7,15,9,3,83,73,60,29.32,29.23,8,0,8,0.00
2013-1-3,31,23,16,25,17,10,84,78,69,29.43,29.24,8,1,12,0.00
2013-1-4,32,22,11,23,15,6,81,75,67,29.42,29.34,13,2,14,0.00
2013-1-5,35,29,22,32,24,17,92,82,74,29.36,29.11,7,1,10,0.00
2013-1-6,35,26,17,31,20,13,92,78,71,29.44,29.09,12,3,14,0.00
2013-1-7,37,28,16,28,22,13,86,78,68,29.45,29.24,10,1,16,0.00
2013-1-8,45,35,28,34,28,22,80,75,63,29.28,29.18,9,1,9,0.00
2013-1-9,49,39,29,35,30,23,84,71,44,29.60,29.18,10,1,11,0.00
2013-1-10,48,36,28,47,28,22,96,74,55,29.58,28.92,11,1,15,0.01
2013-1-11,56,51,46,52,47,44,93,87,77,28.95,28.83,11,2,20,0.01
2013-1-12,51,43,28,47,38,25,92,81,65,29.08,28.87,10,1,10,0.05
2013-1-13,28,21,14,25,16,8,88,82,76,29.39,28.99,7,2,10,0.00
2013-1-14,25,17,12,16,11,8,92,77,62,29.54,29.38,5,0,8,0.00
2013-1-15,30,21,13,22,15,8,85,78,65,29.52,29.22,4,0,7,0.00
2013-1-16,36,28,18,27,20,13,92,73,60,29.22,29.02,13,2,18,0.02
2013-1-17,34,30,23,29,21,16,84,70,52,29.53,29.18,9,1,13,0.00
2013-1-18,43,32,22,30,24,16,80,71,58,29.54,29.13,15,2,15,0.00
2013-1-19,52,40,34,38,31,23,79,70,57,29.15,28.93,15,3,17,0.00
2013-1-20,34,20,15,23,9,5,76,62,46,29.42,29.15,16,2,16,0.00
2013-1-21,17,10,4,9,-1,-6,79,63,44,29.42,29.29,20,4,20,0.00
2013-1-22,14,9,2,0,-4,-6,73,58,44,29.50,29.41,7,2,9,0.00
2013-1-23,32,18,12,16,5,-1,65,57,47,29.44,29.19,9,1,15,0.00
2013-1-24,25,17,6,8,3,-4,68,56,47,29.69,29.41,8,1,10,0.00
2013-1-25,35,26,19,19,15,5,81,63,48,29.41,29.11,13,2,15,0.01
2013-1-26,35,24,13,16,11,6,74,59,39,29.48,29.29,7,0,8,0.01
2013-1-27,42,31,24,40,25,16,91,80,67,29.44,29.02,16,3,19,0.07
2013-1-28,57,50,42,55,48,40,93,92,91,29.06,28.93,9,1,11,0.00
2013-1-29,62,58,52,58,55,49,93,91,85,28.94,28.52,13,2,17,0.34
2013-1-30,52,36,20,49,32,13,93,86,74,28.87,28.40,16,4,20,0.02
2013-1-31,21,15,5,19,7,-3,92,72,61,29.34,28.86,16,5,19,0.00
2013-2-1,20,11,2,15,2,-5,83,67,56,29.50,29.26,10,3,15,0.00
2013-2-2,27,21,15,23,16,8,87,80,70,29.28,29.11,8,1,11,0.00
2013-2-3,28,22,16,19,15,9,89,74,52,29.19,29.07,14,2,16,0.01
2013-2-4,38,29,22,28,22,16,84,75,64,29.10,28.90,9,1,14,0.01
2013-2-5,40,30,20,31,24,16,87,80,68,29.18,28.92,10,2,16,0.00
2013-2-6,46,35,24,32,28,21,88,74,55,29.32,29.18,9,1,11,0.00
2013-2-7,40,36,33,37,32,28,96,86,80,29.17,28.94,11,1,18,0.01
2013-2-8,33,28,24,30,23,20,92,81,77,29.47,29.09,9,1,13,0.00
2013-2-9,37,31,28,30,25,22,81,77,69,29.47,29.15,13,2,18,0.00
2013-2-10,49,42,34,47,38,28,95,86,66,29.16,28.67,18,4,19,0.02
2013-2-11,44,35,28,35,25,22,80,67,56,29.20,28.74,17,5,24,0.00
2013-2-12,36,29,24,27,23,20,86,79,67,29.24,29.03,6,1,9,0.00
2013-2-13,26,25,24,22,22,21,88,87,85,29.03,28.97,0,0,0,0.00
2013-2-14,41,37,33,32,29,27,86,75,64,29.11,28.84,9,2,17,0.00
2013-2-15,35,30,22,28,20,12,84,69,42,29.31,29.10,10,2,13,0.00
2013-2-16,28,20,14,13,9,5,72,62,48,29.30,29.22,10,2,12,0.00
2013-2-17,39,24,11,21,13,4,73,63,46,29.30,29.05,13,2,18,0.00
2013-2-18,54,40,25,45,33,20,92,75,65,29.06,28.59,19,4,22,0.33
2013-2-19,25,19,15,20,10,6,82,67,59,29.32,28.84,17,6,22,0.00
2013-2-20,26,16,6,14,7,-1,81,68,53,29.47,29.33,12,1,13,0.00
2013-2-21,28,22,14,25,18,10,92,81,72,29.44,28.96,10,1,15,0.00
2013-2-22,32,29,26,30,26,20,91,86,77,29.09,28.89,15,2,15,0.00
2013-2-23,27,24,19,20,18,15,84,77,69,29.10,29.06,9,1,10,0.00
2013-2-24,42,28,16,28,21,12,92,75,55,29.22,29.09,5,0,5,0.27
2013-2-25,48,35,25,34,28,21,87,75,55,29.23,28.92,8,1,9,0.08
2013-2-26,34,32,31,31,29,27,95,87,76,28.93,28.54,8,1,16,0.53
2013-2-27,32,31,30,30,28,27,91,90,87,28.87,28.64,5,1,9,0.09
2013-2-28,35,32,31,30,29,26,90,87,79,29.16,28.87,7,1,10,0.26
2013-3-1,31,27,24,27,23,19,92,83,77,29.28,29.14,6,1,9,0.03
2013-3-2,31,24,16,21,17,10,83,72,61,29.30,29.24,7,1,12,0.08
2013-3-3,38,24,13,20,13,8,92,63,40,29.27,29.17,5,0,6,0.07
2013-3-4,36,31,25,28,23,15,83,73,64,29.19,29.00,13,2,18,0.01
2013-3-5,34,31,27,30,28,24,91,88,77,29.10,28.90,11,2,15,0.08
2013-3-6,30,27,25,26,23,21,90,85,80,29.42,29.10,11,2,14,0.12
2013-3-7,37,30,25,28,23,21,85,77,63,29.51,29.42,6,0,8,0.11
2013-3-8,46,34,24,34,27,20,92,75,61,29.55,29.34,9,1,14,0.00
2013-3-9,48,41,35,40,34,28,82,76,67,29.34,28.91,13,3,16,0.06
2013-3-10,52,48,44,49,44,38,92,87,73,28.93,28.67,11,1,14,1.07
2013-3-11,48,36,31,46,33,26,92,87,81,29.00,28.72,12,3,17,0.04
2013-3-12,38,31,26,31,24,18,87,76,62,29.20,29.00,13,4,17,0.00
2013-3-13,26,25,23,20,18,17,85,75,70,29.22,29.20,11,3,12,0.00
2013-3-14,43,30,22,30,22,17,84,73,53,29.45,29.19,13,1,14,0.00
2013-3-15,55,42,30,43,35,26,92,76,59,29.19,28.77,6,0,7,0.00
2013-3-16,47,36,31,40,31,24,91,82,72,29.20,28.74,9,1,9,0.00
2013-3-17,40,33,29,28,25,22,79,72,59,29.25,29.00,8,1,12,0.00
2013-3-18,39,32,25,33,28,14,92,83,62,29.03,28.76,14,2,21,0.07
2013-3-19,40,29,20,18,14,9,70,54,34,29.25,29.00,19,4,22,0.00
2013-3-20,30,24,16,18,9,3,70,54,39,29.27,29.16,14,4,19,0.00
2013-3-21,37,22,14,15,10,7,74,60,38,29.19,29.09,9,1,10,0.00
2013-3-22,47,33,19,21,17,13,86,54,33,29.17,29.08,7,0,8,0.00
2013-3-23,52,39,30,28,24,21,71,55,36,29.19,29.05,6,0,7,0.00
2013-3-24,32,30,28,28,26,22,92,86,68,29.06,28.70,6,1,9,0.01
2013-3-25,35,30,26,28,26,23,91,83,71,29.21,28.81,11,2,16,0.19
2013-3-26,38,34,31,26,25,22,77,69,54,29.38,29.21,9,2,10,0.43
2013-3-27,43,36,30,27,23,20,80,62,43,29.45,29.38,9,1,12,0.07
2013-3-28,51,38,26,33,26,20,82,63,48,29.47,29.38,5,0,8,0.00
2013-3-29,60,46,36,36,32,28,76,58,37,29.40,29.31,6,0,7,0.00
2013-3-30,56,47,37,43,37,30,85,68,52,29.32,29.00,8,1,13,0.00
2013-3-31,60,50,40,44,39,27,90,68,39,29.03,28.89,16,3,19,0.01
2013-4-1,43,36,30,29,21,16,70,55,34,29.31,29.03,11,2,13,0.00
2013-4-2,47,35,24,19,16,13,74,49,27,29.41,29.31,10,1,11,0.00
2013-4-3,56,40,26,23,19,16,67,46,26,29.53,29.39,8,0,8,0.00
2013-4-4,60,45,30,26,23,19,66,43,24,29.39,29.12,8,1,9,0.00
2013-4-5,63,49,37,33,28,21,73,47,26,29.29,29.12,7,0,11,0.00
2013-4-6,71,55,40,48,35,23,77,47,32,29.20,28.79,21,3,21,0.11
2013-4-7,72,58,45,47,43,40,84,60,36,29.06,28.84,6,1,9,0.00
2013-4-8,75,64,56,59,54,41,86,72,52,29.01,28.79,14,2,17,0.11
2013-4-9,78,68,60,61,58,54,81,70,52,29.02,28.92,13,2,17,0.00
2013-4-10,67,49,42,60,45,39,92,85,65,29.02,28.78,11,1,16,1.21
2013-4-11,50,45,38,47,42,32,92,88,75,28.89,28.70,11,1,15,0.17
2013-4-12,41,39,36,34,32,29,81,77,73,29.03,28.75,16,2,19,0.00
2013-4-13,51,44,36,34,31,24,79,61,47,29.11,29.02,13,2,16,0.00
2013-4-14,77,60,44,53,45,34,81,59,39,29.08,28.76,15,3,18,0.01
2013-4-15,62,54,45,56,49,42,90,83,57,29.11,28.84,9,1,15,0.42
2013-4-16,54,47,41,45,41,37,95,80,60,29.31,29.02,5,0,8,1.44
2013-4-17,61,50,44,58,45,36,91,83,71,29.31,28.85,15,1,15,0.03
2013-4-18,69,56,39,64,52,31,93,88,73,28.86,28.58,17,3,22,1.55
2013-4-19,39,37,34,32,29,27,86,74,66,29.11,28.73,13,4,21,0.05
2013-4-20,50,39,30,30,27,23,81,62,41,29.48,29.11,6,1,8,0.01
2013-4-21,59,46,35,39,32,26,76,59,45,29.57,29.39,14,2,15,0.00
2013-4-22,71,56,42,46,38,32,70,53,32,29.40,29.14,12,2,14,0.00
2013-4-23,58,50,37,51,44,34,90,80,65,29.16,28.99,9,1,13,0.50
2013-4-24,49,40,34,35,32,28,89,74,48,29.29,29.05,11,2,13,0.06
2013-4-25,55,46,38,33,30,24,76,56,37,29.42,29.23,14,2,17,0.00
2013-4-26,66,53,42,48,40,31,76,61,48,29.47,29.37,12,2,14,0.00
2013-4-27,68,54,44,50,46,40,91,75,45,29.40,29.08,12,1,12,0.48
2013-4-28,62,55,52,55,52,49,92,87,74,29.08,28.96,5,0,5,0.11
2013-4-29,76,61,47,59,53,44,92,75,54,29.05,28.88,12,2,17,0.01
2013-4-30,61,60,59,55,54,54,85,83,81,28.92,28.91,9,3,14,0.00
2013-5-1,87,73,60,61,56,51,80,57,34,29.23,29.08,6,1,12,0.00
2013-5-2,78,67,48,62,56,44,92,69,49,29.25,29.17,5,0,7,0.51
2013-5-3,66,55,43,62,51,40,92,87,76,29.19,28.93,9,0,15,0.49
2013-5-4,65,59,54,57,54,51,92,83,67,29.13,28.97,12,1,14,0.06
2013-5-5,72,60,53,56,52,48,91,76,43,29.12,29.02,6,0,11,0.02
2013-5-6,76,64,53,55,50,46,85,62,37,29.11,29.04,5,0,12,0.00
2013-5-7,83,68,51,52,46,42,76,49,28,29.15,29.07,6,0,7,0.00
2013-5-8,84,69,53,56,50,45,82,54,28,29.15,29.07,6,0,7,0.00
2013-5-9,66,63,60,61,57,51,92,82,64,29.11,28.93,7,0,11,0.60
2013-5-10,61,55,49,58,51,45,92,87,81,29.08,28.92,6,0,7,0.00
2013-5-11,62,53,45,51,39,27,86,62,32,29.20,29.02,16,2,18,0.01
2013-5-12,57,48,38,33,29,25,70,49,30,29.28,29.20,10,1,14,0.00
2013-5-13,68,55,38,41,34,30,80,48,26,29.31,29.15,7,0,9,0.00
2013-5-14,90,72,56,64,53,39,66,52,38,29.15,28.84,11,1,12,0.00
2013-5-15,84,76,69,63,57,54,61,52,44,28.97,28.87,7,1,12,0.00
2013-5-16,87,73,63,61,56,50,81,56,33,29.06,28.95,5,0,12,0.03
2013-5-17,82,72,61,64,60,55,84,67,41,29.12,29.05,9,0,11,0.02
2013-5-18,84,72,63,64,61,59,88,71,50,29.15,29.03,6,0,9,0.00
2013-5-19,91,77,64,71,66,60,88,69,47,29.06,28.85,11,1,15,0.00
2013-5-20,89,76,64,67,62,57,89,65,35,28.99,28.83,12,1,15,0.64
2013-5-21,82,71,62,68,63,59,90,76,59,28.92,28.79,9,1,12,0.29
2013-5-22,74,67,60,64,59,53,90,76,53,28.92,28.76,8,0,9,0.33
2013-5-23,60,58,54,55,52,49,90,83,72,29.25,28.92,5,0,10,0.03
2013-5-25,49,49,49,46,46,46,90,90,90,29.37,29.36,2,0,7,0.00
2013-5-26,64,56,49,57,51,45,92,83,77,29.37,29.15,6,1,15,0.28
2013-5-27,72,62,57,65,59,54,92,90,78,29.24,28.92,5,0,14,1.68
2013-5-28,78,70,64,70,65,60,91,84,76,29.00,28.88,11,1,16,0.17
2013-5-29,86,74,62,72,65,59,91,74,55,29.08,28.97,11,1,14,0.38
2013-5-30,85,74,64,71,66,59,90,75,59,29.05,28.92,17,2,17,0.39
2013-5-31,76,69,63,70,65,60,92,86,71,29.02,28.82,11,1,13,0.72
2013-6-1,75,66,62,66,61,57,92,84,70,28.93,28.77,12,1,16,0.29
2013-6-2,63,59,54,58,55,50,90,84,77,29.16,28.91,5,0,6,0.02
2013-6-3,69,59,50,50,47,44,92,67,46,29.24,29.14,6,0,8,0.00
2013-6-4,76,64,50,55,50,45,83,61,45,29.24,29.15,7,1,9,0.00
2013-6-5,81,70,57,60,55,52,83,61,43,29.17,28.99,5,0,8,0.00
2013-6-6,75,66,59,60,55,49,80,68,55,29.01,28.94,4,0,6,0.00
2013-6-7,75,64,54,57,52,47,81,66,50,29.04,28.98,4,0,6,0.00
2013-6-8,81,68,53,56,50,42,75,54,38,29.09,29.03,4,0,7,0.00
2013-6-9,82,71,63,64,59,56,88,66,41,29.09,28.91,14,1,14,0.03
2013-6-10,78,70,62,62,60,57,89,72,50,29.01,28.86,4,0,7,0.00
2013-6-11,87,75,60,73,64,56,89,71,47,29.07,28.94,6,0,8,0.00
2013-6-12,94,83,72,74,70,67,85,66,42,29.02,28.73,11,1,12,0.00
2013-6-13,83,74,64,71,61,54,84,64,39,29.13,28.79,7,0,11,0.00
2013-6-14,81,70,57,57,54,51,80,58,37,29.23,29.09,5,0,6,0.00
2013-6-15,79,72,67,68,61,53,90,69,54,29.18,29.02,7,0,17,0.28
2013-6-16,82,73,66,70,66,62,90,80,64,29.13,29.01,5,0,9,0.02
2013-6-17,88,77,66,68,63,55,92,65,36,29.08,29.00,2,0,4,0.00
2013-6-18,82,71,65,65,62,60,89,77,49,29.08,29.01,5,0,8,0.00
2013-6-19,87,70,57,63,55,48,78,62,37,29.22,29.14,6,0,8,0.00
2013-6-20,93,80,68,68,62,59,81,57,36,29.25,29.18,7,0,8,0.00
2013-6-21,92,76,70,70,66,62,90,72,47,29.26,29.09,8,1,14,0.57
2013-6-22,83,75,67,74,68,63,86,80,72,29.20,29.11,9,0,11,0.00
2013-6-23,87,75,67,73,67,63,87,77,56,29.18,29.06,11,1,13,0.00
2013-6-24,90,75,68,74,67,64,90,78,57,29.21,29.01,13,0,15,1.20
2013-6-25,86,75,69,76,70,64,91,84,66,29.08,28.94,7,0,9,0.39
2013-6-26,83,77,68,74,71,65,90,82,69,29.01,28.84,6,0,8,0.05
2013-6-27,88,80,72,74,70,65,91,73,50,28.97,28.87,6,0,8,0.00
2013-6-28,83,75,68,66,62,58,86,66,43,28.92,28.77,10,1,13,0.01
2013-6-29,72,67,63,67,62,58,90,83,73,28.87,28.74,5,0,7,0.30
2013-6-30,76,68,61,64,58,45,89,70,47,29.07,28.87,7,0,9,0.00
2013-7-1,79,70,60,58,53,47,75,56,39,29.14,29.06,9,1,12,0.00
2013-7-2,73,66,62,59,56,53,82,69,55,29.17,29.10,7,0,8,0.00
2013-7-3,76,67,61,61,56,50,84,69,40,29.19,29.12,3,0,4,0.00
2013-7-4,86,74,62,65,59,54,81,62,46,29.22,29.15,13,0,13,0.00
2013-7-5,85,75,65,68,63,57,90,68,45,29.21,29.13,7,0,9,0.00
2013-7-6,85,74,67,69,66,63,89,76,50,29.19,29.10,5,0,8,0.00
2013-7-7,90,79,68,73,68,62,84,69,52,29.15,29.08,6,0,8,0.00
2013-7-8,87,78,74,75,70,68,89,77,56,29.19,29.10,6,0,11,0.08
2013-7-9,91,82,77,76,73,72,84,75,58,29.15,29.02,5,0,6,0.00
2013-7-10,87,78,70,74,70,62,92,78,51,29.13,28.97,5,0,13,0.46
2013-7-11,82,72,63,63,58,54,87,65,41,29.20,29.13,4,0,6,0.00
2013-7-12,87,72,59,60,55,48,81,57,29,29.26,29.18,5,0,8,0.00
2013-7-13,86,75,62,66,61,56,82,64,45,29.25,29.19,8,0,10,0.00
2013-7-14,93,79,66,71,67,62,85,68,46,29.30,29.22,6,0,11,0.00
2013-7-15,91,81,74,75,72,68,85,73,57,29.38,29.29,5,0,9,0.00
2013-7-16,93,83,74,74,71,70,88,70,50,29.44,29.37,7,0,9,0.00
2013-7-17,95,84,74,75,72,69,85,68,49,29.45,29.31,5,0,9,0.00
2013-7-18,95,85,76,76,74,71,87,69,51,29.33,29.13,5,0,8,0.00
2013-7-19,95,86,77,77,73,71,83,67,49,29.13,28.96,5,0,9,0.00
2013-7-27,64,59,56,48,48,47,74,67,54,29.09,29.06,0,0,2,0.00
2013-7-28,71,63,53,54,50,46,80,65,51,29.18,29.06,4,0,11,0.00
2013-7-29,79,66,53,58,53,49,88,65,38,29.28,29.17,4,0,6,0.00
2013-7-30,68,66,65,65,61,55,92,83,64,29.27,29.16,7,0,9,0.44
2013-7-31,75,69,66,69,66,63,93,88,75,29.17,29.10,3,0,4,0.03
2013-8-1,82,72,63,64,60,54,92,68,43,29.17,29.09,5,0,8,0.01
2013-8-2,85,74,68,70,65,60,89,73,57,29.09,29.01,7,0,12,0.06
2013-8-3,84,72,64,68,61,56,92,71,42,29.24,29.07,4,0,5,0.26
2013-8-4,81,70,59,61,57,54,86,65,44,29.29,29.21,4,0,6,0.02
2013-8-5,78,70,61,64,60,56,83,71,55,29.22,29.01,7,0,9,0.01
2013-8-6,88,75,68,72,68,63,89,78,56,29.05,28.96,6,0,6,0.00
2013-8-7,85,75,70,75,70,67,91,85,66,29.04,28.94,4,0,7,0.02
2013-8-8,81,73,65,69,64,56,92,76,61,29.11,29.03,5,0,7,0.01
2013-8-9,83,72,61,66,60,55,84,66,47,29.18,29.10,3,0,4,0.00
2013-8-10,83,74,67,66,61,56,84,65,47,29.25,29.17,3,0,7,0.00
2013-8-11,86,72,59,65,60,54,85,66,46,29.26,29.17,3,0,5,0.00
2013-8-12,83,75,66,71,65,60,85,73,60,29.19,29.01,4,0,6,0.00
2013-8-13,76,68,59,65,56,49,87,67,44,29.26,29.05,5,0,8,0.00
2013-8-14,74,61,51,53,49,46,85,67,43,29.33,29.25,3,0,5,0.00
2013-8-15,77,67,58,54,52,50,75,60,40,29.31,29.21,5,0,8,0.00
2013-8-16,80,70,62,58,55,53,78,61,42,29.29,29.24,4,0,7,0.00
2013-8-17,82,69,58,58,56,53,85,64,39,29.34,29.26,9,0,9,0.00
2013-8-18,86,72,58,62,58,54,85,65,42,29.31,29.21,5,0,7,0.00
2013-8-19,86,74,62,66,62,57,84,68,48,29.25,29.16,4,0,7,0.00
2013-8-20,89,77,66,68,65,60,83,67,47,29.25,29.16,6,0,7,0.00
2013-8-21,90,79,69,70,66,64,84,67,46,29.23,29.13,5,0,11,0.00
2013-8-22,83,74,70,70,67,65,90,77,60,29.25,29.15,7,0,9,0.00
2013-8-23,87,75,65,68,65,59,90,72,48,29.27,29.20,5,0,8,0.00
2013-8-24,91,76,63,69,64,58,83,67,44,29.36,29.26,6,0,7,0.00
2013-8-25,91,78,66,68,63,57,76,60,41,29.39,29.29,6,0,8,0.00
2013-8-26,91,80,70,73,69,62,87,70,53,29.32,29.16,4,0,6,0.00
2013-8-27,93,82,73,74,70,68,85,70,50,29.17,29.05,6,0,11,0.00
2013-8-28,94,82,72,77,70,64,86,68,54,29.14,29.04,6,0,7,0.00
2013-8-29,88,77,70,73,69,67,91,79,56,29.19,29.10,5,0,6,0.00
2013-8-30,96,83,71,77,71,60,87,69,48,29.11,28.93,8,0,8,0.00
2013-8-31,95,80,70,78,69,60,85,70,55,28.96,28.84,5,0,7,0.00
2013-9-1,87,77,70,73,69,63,89,77,59,28.95,28.88,4,0,7,0.00
2013-9-2,83,73,65,64,60,57,82,65,46,29.09,28.94,4,0,5,0.00
2013-9-3,79,67,59,59,57,55,91,72,49,29.22,29.09,3,0,5,0.00
2013-9-4,83,66,58,61,56,54,87,72,45,29.27,29.17,4,0,6,0.00
2013-9-5,90,75,64,68,62,56,79,64,45,29.32,29.24,2,0,5,0.00
2013-9-6,90,73,63,67,60,54,78,65,46,29.31,29.15,6,0,8,0.00
2013-9-7,88,77,67,71,64,61,81,67,46,29.16,29.03,7,0,7,0.01
2013-9-8,76,75,73,68,66,65,81,73,70,29.09,29.02,3,0,6,0.01
2013-9-9,97,80,70,75,71,67,90,74,48,29.07,28.99,5,0,11,0.01
2013-9-10,98,84,73,71,68,66,79,61,38,29.18,29.07,6,0,8,0.00
2013-9-11,95,82,72,70,67,64,81,62,37,29.22,29.13,7,0,8,0.00
2013-9-12,84,73,62,69,62,48,90,72,34,29.18,29.09,9,0,10,0.00
2013-9-13,72,62,53,52,47,43,85,60,39,29.28,29.17,5,0,6,0.00
2013-9-14,76,60,47,47,44,42,83,58,33,29.30,29.16,6,0,7,0.00
2013-9-15,71,62,55,59,52,45,89,69,52,29.24,29.09,6,0,9,0.00
2013-9-16,73,62,52,56,52,46,92,73,48,29.42,29.24,7,0,9,0.00
2013-9-17,78,62,49,57,51,45,88,70,45,29.41,29.21,8,0,8,0.00
2013-9-18,87,72,63,69,62,53,86,70,53,29.21,29.06,8,1,11,0.00
2013-9-19,94,80,71,71,69,67,89,70,46,29.09,28.94,13,1,19,0.00
2013-9-20,78,69,68,67,65,65,91,89,69,29.04,28.96,6,0,13,0.00
2013-9-21,71,59,52,52,49,46,89,73,46,29.06,28.97,6,0,6,0.00
2013-9-22,76,60,47,50,47,43,88,65,37,29.16,29.06,5,0,7,0.00
2013-9-23,80,62,46,50,46,41,85,59,31,29.19,29.09,8,0,9,0.00
2013-9-24,80,65,52,57,52,46,80,63,40,29.12,28.98,6,0,11,0.00
2013-9-25,84,66,54,60,53,47,79,63,42,29.05,28.98,4,0,5,0.00
2013-9-26,87,68,55,58,52,47,82,59,33,29.17,29.05,6,0,6,0.00
2013-9-27,87,70,54,56,51,48,80,55,29,29.26,29.15,7,0,11,0.00
2013-9-28,85,71,59,64,57,52,83,62,42,29.18,29.04,10,1,15,0.00
2013-9-29,74,62,54,64,51,46,90,70,38,29.18,29.08,4,0,6,0.02
2013-9-30,80,64,50,58,52,46,86,69,41,29.12,29.00,6,0,8,0.00
2013-10-1,80,69,63,67,63,58,89,82,62,29.12,29.03,7,0,8,0.00
2013-10-2,83,71,65,68,65,63,93,82,53,29.19,29.09,6,0,9,0.00
2013-10-3,85,70,63,69,65,60,92,86,57,29.09,28.97,10,0,13,0.00
2013-10-4,88,74,63,71,66,61,92,78,51,29.10,29.03,8,0,8,0.08
2013-10-5,81,72,59,71,66,54,91,82,59,29.07,28.91,4,0,7,0.09
2013-10-6,60,52,46,54,44,38,88,75,49,28.96,28.87,6,0,9,0.03
2013-10-7,68,54,44,49,45,41,91,73,48,29.22,28.92,6,0,7,0.02
2013-10-8,81,63,48,52,47,44,85,61,33,29.32,29.21,7,0,7,0.01
2013-10-9,79,60,48,50,46,43,82,63,32,29.33,29.22,7,0,7,0.01
2013-10-10,80,64,52,60,53,46,85,68,45,29.27,29.14,5,0,6,0.01
2013-10-11,82,68,59,61,55,53,83,65,41,29.17,29.04,9,1,12,0.00
2013-10-12,72,62,52,62,54,42,88,74,51,29.31,29.08,7,0,7,0.01
2013-10-13,70,55,44,44,38,32,81,56,27,29.49,29.31,3,0,6,0.00
2013-10-14,72,55,41,45,39,34,84,58,27,29.48,29.19,6,0,11,0.00
2013-10-15,64,59,52,62,52,42,92,78,59,29.19,28.94,7,1,10,0.00
2013-10-16,54,50,45,45,42,39,81,75,66,29.09,29.03,7,0,9,0.00
2013-10-17,59,50,46,46,42,38,90,74,47,29.08,28.98,8,0,9,0.00
2013-10-18,54,46,42,41,39,38,87,75,57,29.11,29.00,6,0,10,0.00
2013-10-19,54,46,40,40,38,34,92,73,48,29.08,28.96,6,0,10,0.00
2013-10-20,70,53,40,45,40,35,82,63,38,29.01,28.87,9,1,11,0.00
2013-10-21,55,46,34,44,34,25,78,64,44,29.13,28.96,6,0,14,0.00
2013-10-22,43,37,31,39,32,25,90,82,72,29.12,28.94,6,0,7,0.58
2013-10-23,44,38,34,34,31,26,90,75,51,29.18,29.04,7,0,7,0.10
2013-10-24,41,37,33,34,27,22,92,67,50,29.44,29.17,6,0,11,0.04
2013-10-25,54,39,27,32,27,22,84,62,37,29.54,29.24,7,0,8,0.20
2013-10-26,57,46,37,38,31,27,76,58,38,29.24,29.04,11,1,14,0.00
2013-10-27,58,44,31,33,30,26,85,61,37,29.21,29.10,5,0,7,0.00
2013-10-28,67,49,36,40,34,28,82,59,30,29.41,29.16,6,0,9,0.00
2013-10-29,56,47,37,49,41,34,90,79,55,29.41,29.22,5,0,7,0.04
2013-10-30,63,56,52,61,53,49,93,92,90,29.22,28.98,8,0,12,0.46
2013-10-31,63,58,45,61,56,41,93,92,86,28.92,28.42,10,1,12,0.75
2013-11-1,50,47,43,44,42,40,90,84,69,28.90,28.64,5,0,9,0.19
2013-11-2,51,43,35,40,36,31,90,78,56,29.26,28.89,7,0,8,0.00
2013-11-3,57,43,31,39,34,28,91,71,45,29.40,29.25,8,0,9,0.00
2013-11-4,58,50,43,44,40,34,77,69,54,29.33,29.22,9,2,14,0.00
2013-11-5,55,52,50,51,48,44,92,83,75,29.37,29.08,8,1,13,0.11
2013-11-6,57,47,35,53,43,28,92,86,76,29.31,28.96,14,1,14,0.71
2013-11-7,48,37,29,36,30,25,87,76,49,29.41,29.30,9,0,11,0.01
2013-11-8,50,41,28,34,30,25,90,67,46,29.44,29.13,11,1,15,0.00
2013-11-9,62,51,42,42,37,34,78,60,41,29.29,29.06,12,2,15,0.00
2013-11-10,49,41,33,35,30,27,78,67,50,29.50,29.29,6,0,8,0.00
2013-11-11,52,40,25,39,32,19,89,74,59,29.59,29.22,5,0,10,0.04
2013-11-12,32,25,20,21,17,14,78,72,58,29.81,29.59,7,0,8,0.05
2013-11-13,40,29,19,23,18,14,89,65,45,29.73,29.33,8,1,11,0.01
2013-11-14,52,38,28,28,23,19,69,57,35,29.33,29.10,7,1,15,0.00
2013-11-15,50,43,38,40,33,27,83,68,59,29.13,29.04,9,1,9,0.00
2013-11-16,60,53,42,56,49,37,90,86,76,29.04,28.73,18,2,22,0.16
2013-11-17,70,59,43,64,54,37,90,82,65,28.98,28.37,15,3,26,0.58
2013-11-18,48,41,32,38,32,25,84,71,47,29.37,28.97,13,2,20,0.00
2013-11-19,49,35,26,30,26,22,86,71,46,29.45,29.33,7,0,10,0.00
2013-11-20,43,37,31,38,31,25,86,78,65,29.35,29.14,13,2,16,0.22
2013-11-21,49,46,43,45,42,37,92,86,79,29.31,29.19,5,0,11,0.24
2013-11-22,45,36,28,42,32,24,91,85,76,29.59,29.29,7,0,10,0.02
2013-11-23,28,22,14,26,13,6,92,69,54,29.79,29.56,13,1,13,0.00
2013-11-24,28,18,10,11,7,3,77,62,39,29.82,29.49,4,0,6,0.00
2013-11-25,32,27,21,24,17,11,79,66,58,29.49,29.22,9,1,12,0.00
2013-11-26,35,27,17,27,18,6,82,69,58,29.28,29.13,13,1,15,0.00
2013-11-27,27,19,12,11,8,4,72,61,46,29.37,29.26,12,1,13,0.00
2013-11-28,36,27,19,21,15,10,74,61,49,29.58,29.29,11,1,11,0.00
2013-11-29,39,28,17,22,18,12,84,67,49,29.70,29.48,9,1,11,0.00
2013-11-30,52,39,29,34,28,22,83,66,48,29.48,29.17,7,1,8,0.00
2013-12-1,49,38,28,35,30,25,92,73,53,29.21,29.06,3,0,4,0.00
2013-12-2,46,38,31,39,33,27,94,81,68,29.06,28.80,6,0,9,0.01
2013-12-3,49,45,39,47,42,36,97,91,88,28.83,28.75,8,1,12,0.00
2013-12-4,56,49,37,54,46,32,93,90,79,28.90,28.61,13,2,16,0.02
2013-12-5,37,25,20,32,17,10,89,71,64,29.36,28.89,13,2,15,0.00
2013-12-6,20,17,12,12,8,4,76,68,62,29.64,29.34,8,1,9,0.00
2013-12-7,22,14,7,7,4,2,78,65,46,29.77,29.60,6,0,9,0.00
2013-12-8,25,21,14,22,16,5,89,81,68,29.61,29.08,6,0,9,0.00
2013-12-9,24,20,15,21,13,5,88,75,65,29.34,29.08,12,3,14,0.00
2013-12-10,26,14,4,14,5,-2,84,66,48,29.40,29.19,17,2,19,0.00
2013-12-11,22,17,4,16,8,-6,80,68,49,29.69,29.34,11,1,15,0.00
2013-12-12,30,12,1,16,3,-6,77,67,54,29.67,29.31,7,1,11,0.00
2013-12-13,38,28,18,28,20,11,90,74,56,29.31,29.12,5,0,9,0.05
2013-12-14,32,29,21,29,26,16,92,88,84,29.14,28.97,0,0,0,0.00
2013-12-15,21,16,12,17,11,7,85,80,73,29.20,29.12,8,1,10,0.00
2013-12-16,18,15,13,13,10,9,92,83,81,29.20,29.16,1,0,4,0.00
2013-12-17,31,23,19,27,19,15,90,84,64,29.28,29.14,10,1,11,0.02
2013-12-18,37,28,14,31,19,8,81,70,52,29.30,28.98,11,1,14,0.16
2013-12-19,45,40,35,42,36,31,92,86,80,29.03,28.87,9,1,11,0.43
2013-12-20,48,41,30,46,38,28,92,92,89,28.94,28.80,7,0,9,0.16
2013-12-21,33,30,29,30,28,27,92,92,91,28.96,28.63,9,0,9,0.00
2013-12-22,33,30,22,30,27,18,92,90,84,29.28,28.67,8,1,12,0.65
2013-12-23,22,13,3,18,8,-5,85,78,69,29.59,29.28,10,3,14,0.00
2013-12-24,19,10,0,12,3,-6,82,72,67,29.66,29.43,8,1,13,0.00
2013-12-25,29,24,19,25,19,11,92,80,70,29.43,29.25,12,1,12,0.00
2013-12-26,37,29,18,29,22,14,89,76,61,29.43,29.28,8,1,12,0.01
2013-12-27,46,36,28,34,29,24,85,75,58,29.41,29.26,7,0,8,0.00
2013-12-28,53,41,34,38,32,28,81,70,55,29.26,28.98,7,1,11,0.00
2013-12-29,38,26,9,30,22,3,89,82,73,29.32,28.91,12,2,14,0.00
2013-12-30,16,10,2,10,2,-4,79,70,57,29.43,29.27,6,0,11,0.00
2013-12-31,26,18,12,17,11,7,81,75,63,29.47,29.27,5,0,8,0.00
2014-1-1,24,20,18,19,15,12,90,81,78,29.30,29.23,3,0,6,0.00
2014-1-2,18,13,5,14,8,-1,92,82,75,29.51,29.17,6,1,12,0.00